sat.trackr.live / text

‹ back to catalog

STARLINK-34047

NORAD 63821 · 2025-092T

PAYLOAD ACTIVE UNKNOWN

§ Identity

Operator
Country
US
Launch date
2025-05-04
Launch site
AFETR
Launch vehicle
Mass (kg)
RCS (m²)

Purposes: comms

External: N2YO · Heavens-Above · Gunter

§ Orbital elements

Epoch: 2026-09-20T02:05:28.128768Z

Period
94.27 min
Inclination
43.0030°
Eccentricity
0.0001253
Mean motion
15.27591450 rev/d
Perigee alt
482.2 km
Apogee alt
483.9 km
Semi-major
6,861.2 km
B*
4.3527e-4
RAAN
154.8236°
Arg perigee
260.6765°
Mean anomaly
99.3945°
Rev number
7,839

§ Raw data

STARLINK-340471 63821U 25092T   26263.08713112  .00011739  00000+0  43527-3 0  99942 63821  43.0030 154.8236 0001253 260.6765  99.3945 15.27591450 78399

JSON: /api/v1/satellites/63821 · /tle

For live sub-satellite position, see the globe view (requires WebGL).

§ Visibility from observer

Set your observer location to see the next 7 days of passes ≥ 10°. The values pass through the URL so the page stays shareable.

No JS? Fill the form by hand. The geolocation button needs JavaScript.